(327176) = 1995 UF73 = 2005 JP127

Discovered at Socorro on 2005-05-12 by LINEAR.

Orbit

Orbit type: Main Belt

Note: WebGL enabled browser required.

epoch2024-03-31.0
epoch JD2460400.5
perihelion date2023-05-07.87452
perihelion JD2460072.37452
argument of perihelion (°)116.46485
ascending node (°)146.05435
inclination (°)2.79740
eccentricity0.2021742
perihelion distance (AU)1.8604582
Tisserand w.r.t. Jupiter3.5
ΔV w.r.t. Earth (km/sec)8.5
semimajor axis (AU)2.3319102
mean anomaly (°)90.81886
mean daily motion (°/day)0.27678090
aphelion distance (AU)2.803
period (years)3.56
P-vector [x]-0.12959826
P-vector [y]-0.92623993
P-vector [z]-0.35395463
Q-vector [x]0.99119200
Q-vector [y]-0.11120331
Q-vector [z]-0.07191828
absolute magnitude17.77
phase slope0.15
uncertainty0
referenceMPEC 2024-F07
observations used217
oppositions14
arc length (days)10124
first opposition used1995
last opposition used2023
residual rms (arc-secs)0.83
perturbers coarse indicatorM-v
perturbers precise indicator003Ek
first observation date used1995-10-20.0
last observation date used2023-07-09.0
computer nameMPCLINUX
JD of orbit computation2456639.547739
perihelion JD uncertainty (days)9.5877E-05
argument of perihelion uncertainty (°)1.5617E-04
ascending node uncertainty (°)1.5458E-04
inclination uncertainty (°)4.7917E-06
eccentricity uncertainty 8.3249E-08
perihelion distance uncertainty (AU)2.0263E-07
Minimum Orbit Intersection Distances (in AU)
for orbit epoch: 2460400.5, reference: E2024-F07
Mercury1.39776
Venus1.13544
Earth0.8468
Mars0.36772
Jupiter2.26683
Saturn6.24194
Uranus15.9604
Neptune27.107

Observations

222 total observations over interval: 1995 10 20.31874 – 2023 07 09.513216
These data are available for download (format description).

Date (UT) J2000 RA J2000 Dec Magn Location Ref
1995 10 20.31874 00 56 48.82 +02 03 35.2   691 – Steward Observatory, Kitt Peak-Spacewatch MPS 32172
1995 10 20.34394 00 56 47.40 +02 03 26.5   691 – Steward Observatory, Kitt Peak-Spacewatch MPS 32172
1995 10 20.36475 00 56 46.25 +02 03 19.6 20.7 V 691 – Steward Observatory, Kitt Peak-Spacewatch MPS 32172
1995 10 26.13619 00 51 56.73 +01 32 55.0 21.6 V 691 – Steward Observatory, Kitt Peak-Spacewatch MPS 32172
1995 10 26.15715 00 51 55.70 +01 32 49.4 21.2 V 691 – Steward Observatory, Kitt Peak-Spacewatch MPS 32172
1995 10 26.17796 00 51 54.68 +01 32 43.0 21.3 V 691 – Steward Observatory, Kitt Peak-Spacewatch MPS 32172
2002 09 05.330490 00 23 59.688 -00 00 24.93 20.90 V 645 – Apache Point-Sloan Digital Sky Survey MPS 284354
2002 09 05.333962 00 23 59.520 -00 00 26.27 21.87   645 – Apache Point-Sloan Digital Sky Survey MPS 284354
2005 05 12.32805 15 39 36.85 -13 25 00.0 18.4   704 – Lincoln Laboratory ETS, New Mexico MPS 134993
2005 05 12.33872 15 39 36.32 -13 24 57.2 19.2   704 – Lincoln Laboratory ETS, New Mexico MPS 134993
2005 05 12.35353 15 39 35.56 -13 24 54.3 19.4   704 – Lincoln Laboratory ETS, New Mexico MPS 134993
2005 05 12.36479 15 39 34.76 -13 24 49.9 18.9   704 – Lincoln Laboratory ETS, New Mexico MPS 134993
2005 05 12.37519 15 39 34.20 -13 24 48.7 19.0   704 – Lincoln Laboratory ETS, New Mexico MPS 134993
2005 05 14.38526 15 37 49.56 -13 17 27.7 16.3 R G96 – Mt. Lemmon Survey MPS 134993
2005 05 14.39319 15 37 49.12 -13 17 25.9 18.4 R G96 – Mt. Lemmon Survey MPS 134993
2005 05 14.40116 15 37 48.68 -13 17 24.2 18.4 R G96 – Mt. Lemmon Survey MPS 134993
2005 05 14.40911 15 37 48.25 -13 17 22.4 18.5 R G96 – Mt. Lemmon Survey MPS 134993
2005 05 14.43285 15 37 47.00 -13 17 17.2 19.1   644 – Palomar Mountain/NEAT MPS 136557
2005 05 14.44280 15 37 46.45 -13 17 15.0 18.9   644 – Palomar Mountain/NEAT MPS 136557
2005 05 14.45464 15 37 45.80 -13 17 12.1 18.8   644 – Palomar Mountain/NEAT MPS 136557
2005 06 03.17272 15 21 31.35 -12 27 27.0 20.0 V 691 – Steward Observatory, Kitt Peak-Spacewatch MPS 136557
2005 06 03.19021 15 21 30.58 -12 27 25.4 19.9 V 691 – Steward Observatory, Kitt Peak-Spacewatch MPS 136557
2005 06 03.20768 15 21 29.83 -12 27 24.7 19.9 V 691 – Steward Observatory, Kitt Peak-Spacewatch MPS 136557
2005 06 04.27446 15 20 47.36 -12 26 19.2 19.0 V 703 – Catalina Sky Survey MPS 136557
2005 06 04.28260 15 20 46.93 -12 26 18.1 19.4 V 703 – Catalina Sky Survey MPS 136557
2005 06 04.29073 15 20 46.64 -12 26 18.7 19.4 V 703 – Catalina Sky Survey MPS 136557
2005 06 04.29882 15 20 46.21 -12 26 17.9 19.9 V 703 – Catalina Sky Survey MPS 136557
2005 06 08.17313 15 18 28.89 -12 24 00.3 20.1 V 691 – Steward Observatory, Kitt Peak-Spacewatch MPS 136557
2005 06 08.19051 15 18 28.25 -12 23 59.9 20.1 V 691 – Steward Observatory, Kitt Peak-Spacewatch MPS 136557
2005 06 08.20788 15 18 27.64 -12 24 00.1 20.0 V 691 – Steward Observatory, Kitt Peak-Spacewatch MPS 136557
2005 06 12.17746 15 16 34.81 -12 24 32.3 19.9 V 691 – Steward Observatory, Kitt Peak-Spacewatch MPS 136557
2005 06 12.19482 15 16 34.31 -12 24 33.0 20.1 V 691 – Steward Observatory, Kitt Peak-Spacewatch MPS 136557
2005 06 12.21220 15 16 33.84 -12 24 33.0 19.8 V 691 – Steward Observatory, Kitt Peak-Spacewatch MPS 136557
2005 06 16.18800 15 15 12.38 -12 28 05.2 20.4 V 691 – Steward Observatory, Kitt Peak-Spacewatch MPS 136557
2005 06 16.20535 15 15 12.05 -12 28 06.1 20.0 V 691 – Steward Observatory, Kitt Peak-Spacewatch MPS 136557
2005 06 16.22272 15 15 11.70 -12 28 07.6 20.0 V 691 – Steward Observatory, Kitt Peak-Spacewatch MPS 136557
2005 06 26.90591 15 14 19.96 -12 51 48.8 19.6 V A13 – Observatoire Naef, Ependes MPS 137086
2005 06 26.91033 15 14 19.95 -12 51 49.4 19.7 V A13 – Observatoire Naef, Ependes MPS 137086
2005 06 26.93254 15 14 20.17 -12 51 53.2 20.1 V A13 – Observatoire Naef, Ependes MPS 137086
2005 06 27.19078 15 14 22.13 -12 52 41.1 19.6   644 – Palomar Mountain/NEAT MPS 137979
2005 06 27.21221 15 14 22.23 -12 52 45.0 19.7   644 – Palomar Mountain/NEAT MPS 137979
2005 06 27.23402 15 14 22.32 -12 52 49.2 19.7   644 – Palomar Mountain/NEAT MPS 137979
2008 02 11.21138 09 27 07.95 +14 31 44.1 20.5 V G96 – Mt. Lemmon Survey MPS 279614
2008 02 11.21462 09 27 07.77 +14 31 45.3 20.8 V G96 – Mt. Lemmon Survey MPS 279614
2008 02 11.21789 09 27 07.56 +14 31 46.4 20.7 V G96 – Mt. Lemmon Survey MPS 279614
2008 02 11.22116 09 27 07.34 +14 31 47.7 20.9 V G96 – Mt. Lemmon Survey MPS 279614
2008 02 24.25271 09 13 54.62 +15 48 49.4 21.8 V G96 – Mt. Lemmon Survey MPS 279614
2008 02 24.25826 09 13 54.26 +15 48 51.0 21.8 V G96 – Mt. Lemmon Survey MPS 279614
2008 02 24.26382 09 13 53.97 +15 48 52.9 21.8 V G96 – Mt. Lemmon Survey MPS 279614
2008 02 24.26940 09 13 53.65 +15 48 55.0 22.2 V G96 – Mt. Lemmon Survey MPS 279614
2008 03 14.22098 08 59 45.92 +17 12 37.2 21.6 V G96 – Mt. Lemmon Survey MPS 279614
2008 03 14.22697 08 59 45.74 +17 12 38.5 21.9 V G96 – Mt. Lemmon Survey MPS 279614
2008 03 14.24031 08 59 45.34 +17 12 41.6 22.0 V G96 – Mt. Lemmon Survey MPS 279614
2008 03 14.24780 08 59 45.09 +17 12 41.7 21.4 V G96 – Mt. Lemmon Survey MPS 279614
2009 08 26.00478 23 05 31.72 -07 06 38.3 19.7 V J75 – OAM Observatory, La Sagra MPS 292614
2009 08 26.01714 23 05 31.00 -07 06 44.6 19.7 V J75 – OAM Observatory, La Sagra MPS 292614
2009 08 26.02949 23 05 30.35 -07 06 49.6 19.4 V J75 – OAM Observatory, La Sagra MPS 292614
2012 03 28.27816 14 01 12.61 -07 49 48.0 20.3 V 691 – Steward Observatory, Kitt Peak-Spacewatch MPS 418456
2012 03 28.29587 14 01 12.00 -07 49 42.1 20.2 V 691 – Steward Observatory, Kitt Peak-Spacewatch MPS 418456
2012 03 28.31360 14 01 11.38 -07 49 36.1 20.0 V 691 – Steward Observatory, Kitt Peak-Spacewatch MPS 418456
2012 04 15.35972 13 47 47.32 -05 55 40.7 19.3 V 703 – Catalina Sky Survey MPS 420818
2012 04 15.36478 13 47 47.04 -05 55 38.1 19.7 V 703 – Catalina Sky Survey MPS 420818
2012 04 15.36992 13 47 46.86 -05 55 35.4 18.7 V 703 – Catalina Sky Survey MPS 420818
2012 04 15.37505 13 47 46.42 -05 55 34.2 19.0 V 703 – Catalina Sky Survey MPS 420818
2012 04 18.31051 13 45 09.39 -05 36 14.7 19.5 V G96 – Mt. Lemmon Survey MPS 420818
2012 04 18.31903 13 45 08.92 -05 36 11.4 19.5 V G96 – Mt. Lemmon Survey MPS 420818
2012 04 18.32771 13 45 08.42 -05 36 08.0 19.5 V G96 – Mt. Lemmon Survey MPS 420818
2012 04 18.33626 13 45 07.95 -05 36 04.5 19.4 V G96 – Mt. Lemmon Survey MPS 420818
2012 04 24.32008 13 39 45.61 -04 58 23.0 20.0 V 703 – Catalina Sky Survey MPS 421871
2012 04 24.32637 13 39 45.18 -04 58 20.2 20.3 V 703 – Catalina Sky Survey MPS 421871
2012 04 24.33264 13 39 44.71 -04 58 18.5 20.2 V 703 – Catalina Sky Survey MPS 421871
2012 04 24.33893 13 39 44.38 -04 58 17.0 19.6 V 703 – Catalina Sky Survey MPS 421871
2012 04 30.24959 13 34 40.69 -04 25 04.9 19.7 V G96 – Mt. Lemmon Survey MPS 422827
2012 04 30.25482 13 34 40.44 -04 25 03.2 19.7 V G96 – Mt. Lemmon Survey MPS 422827
2012 04 30.26007 13 34 40.15 -04 25 01.5 19.7 V G96 – Mt. Lemmon Survey MPS 422827
2012 04 30.26530 13 34 39.86 -04 24 59.9 19.6 V G96 – Mt. Lemmon Survey MPS 422827
2012 05 12.22938 13 26 20.50 -03 37 07.8 19.6 V 703 – Catalina Sky Survey MPS 424894
2012 05 12.23617 13 26 20.32 -03 37 06.9 20.1 V 703 – Catalina Sky Survey MPS 424894
2012 05 12.24301 13 26 19.93 -03 37 06.7 20.4 V 703 – Catalina Sky Survey MPS 424894
2012 05 12.24983 13 26 19.78 -03 37 04.4 20.0 V 703 – Catalina Sky Survey MPS 424894
2013 10 24.34641 02 38 36.86 +11 00 28.2 21.0 V G96 – Mt. Lemmon Survey MPS 490904
2013 10 24.35109 02 38 36.57 +11 00 26.7 20.6 V G96 – Mt. Lemmon Survey MPS 490904
2013 10 24.35576 02 38 36.29 +11 00 25.1 20.5 V G96 – Mt. Lemmon Survey MPS 490904
2013 10 24.36067 02 38 36.01 +11 00 23.6 20.4 V G96 – Mt. Lemmon Survey MPS 490904
2013 10 26.26604 02 36 41.68 +10 50 16.1 21.2 V G96 – Mt. Lemmon Survey MPS 485130
2013 10 26.27102 02 36 41.39 +10 50 14.5 20.9 V G96 – Mt. Lemmon Survey MPS 485130
2013 10 26.28097 02 36 40.74 +10 50 11.8 20.8 V G96 – Mt. Lemmon Survey MPS 485130
2013 11 01.24280 02 30 37.45 +10 18 52.4 20.9 V G96 – Mt. Lemmon Survey MPS 487060
2013 11 01.25006 02 30 36.95 +10 18 49.8 20.6 V G96 – Mt. Lemmon Survey MPS 487060
2013 11 01.25731 02 30 36.55 +10 18 48.2 21.0 V G96 – Mt. Lemmon Survey MPS 487060
